Back to catalog

COSMOS 886 DEB

AliveUNKNOWN
NORAD 15555·DEBRIS·🇷🇺 Russia

Launched Dec 27, 1976 from Baikonur Cosmodrome

Loading…

Next Passes (next 24 hours)

TLE

FreshSource: Space-Track

Epoch: Sep 14, 2026, 12:04 UTC

1 15555U 76126BT  26257.50325084  .00000094  00000-0  16850-3 0  9998
2 15555  65.7817 215.6143 0953147 144.3847 222.4761 12.53558107578011

Track COSMOS 886 DEB in real time with AllMySat

Download on the App Store